WXM80 ListenWXM80 Stop

You find our weather info also at:

UK Metoffice

WeatherCloud

Weather Underground

Northeastern Weather Network

AWEKAS

Citizen Weather Observer Program (CWOP)

HAMweather, WeatherForYou, PWS Weather


Weather Underground History page Text

Daily Summary for August 9, 2016 Units:  English    Metric   Both
« Previous Day
Next Day »
Daily Weekly Monthly Yearly Custom
  High: Low: Average:
Temperature: 89.4 °F 66.1 °F 77 °F
Dew Point: 74.2 °F 58.6 °F 66.3 °F
Humidity: 97 % 37 % 73 %
Wind Speed: 5.0 mph 0.0 mph 0.9 mph
Wind Gust: 9.2 mph - -
Wind:- - SE
Pressure: 30.20 in 30.09 in -
Precipitation: 0.00 in    
Historical Graphs
 
 
Tabular Data for August 9, 2016
Time Temperature Dew Point Pressure Wind Wind Speed Wind Gust Humidity Rainfall Rate (Hourly)
00:00 72.4 °F 64.8 °F 30.09 in SW 0.1 mph 2.3 mph 77 % 0.00 in
00:05 72.4 °F 65.2 °F 30.09 in Calm     78 % 0.00 in
00:11 72.2 °F 65.3 °F 30.09 in SW 0.2 mph 1.0 mph 79 % 0.00 in
00:16 72.0 °F 65.1 °F 30.09 in Calm     79 % 0.00 in
00:21 71.9 °F 65.0 °F 30.09 in Calm     79 % 0.00 in
00:26 71.7 °F 64.8 °F 30.10 in SW 0.2 mph 1.2 mph 79 % 0.00 in
00:31 71.6 °F 64.7 °F 30.10 in Calm     79 % 0.00 in
00:36 71.5 °F 65.0 °F 30.10 in Calm   1.0 mph 80 % 0.00 in
00:41 71.4 °F 64.9 °F 30.10 in Calm     80 % 0.00 in
00:46 71.3 °F 64.8 °F 30.10 in Calm   1.0 mph 80 % 0.00 in
00:51 71.1 °F 64.6 °F 30.10 in Calm   1.0 mph 80 % 0.00 in
00:56 71.0 °F 64.9 °F 30.10 in Calm     81 % 0.00 in
01:01 70.8 °F 64.3 °F 30.10 in Calm     80 % 0.00 in
01:06 70.7 °F 64.6 °F 30.10 in SW 0.1 mph 1.2 mph 81 % 0.00 in
01:11 70.6 °F 64.5 °F 30.10 in Calm     81 % 0.00 in
01:16 70.4 °F 64.3 °F 30.10 in Calm   1.2 mph 81 % 0.00 in
01:21 70.2 °F 64.4 °F 30.10 in Calm     82 % 0.00 in
01:26 70.1 °F 64.3 °F 30.10 in Calm     82 % 0.00 in
01:31 69.9 °F 64.5 °F 30.10 in Calm     83 % 0.00 in
01:36 69.7 °F 64.3 °F 30.10 in Calm     83 % 0.00 in
01:41 69.5 °F 64.1 °F 30.10 in Calm     83 % 0.00 in
01:47 69.4 °F 64.0 °F 30.10 in Calm     83 % 0.00 in
01:52 69.3 °F 63.9 °F 30.10 in Calm     83 % 0.00 in
01:57 69.1 °F 64.1 °F 30.10 in Calm     84 % 0.00 in
02:02 69.0 °F 64.0 °F 30.10 in Calm     84 % 0.00 in
02:07 68.8 °F 63.8 °F 30.11 in SW 0.2 mph 1.2 mph 84 % 0.00 in
02:12 68.7 °F 64.0 °F 30.11 in Calm     85 % 0.00 in
02:17 68.5 °F 63.8 °F 30.11 in Calm     85 % 0.00 in
02:22 68.4 °F 63.7 °F 30.12 in Calm     85 % 0.00 in
02:27 68.3 °F 63.6 °F 30.11 in Calm     85 % 0.00 in
02:32 68.2 °F 63.5 °F 30.11 in Calm     85 % 0.00 in
02:38 68.1 °F 63.8 °F 30.11 in Calm     86 % 0.00 in
02:48 67.9 °F 63.9 °F 30.11 in Calm     87 % 0.00 in
02:53 67.8 °F 63.8 °F 30.11 in Calm     87 % 0.00 in
02:58 67.7 °F 63.7 °F 30.11 in Calm     87 % 0.00 in
03:03 67.6 °F 63.6 °F 30.11 in Calm     87 % 0.00 in
03:08 67.5 °F 63.8 °F 30.11 in Calm     88 % 0.00 in
03:13 67.4 °F 63.7 °F 30.12 in Calm     88 % 0.00 in
03:18 67.4 °F 64.0 °F 30.12 in Calm     89 % 0.00 in
03:23 67.3 °F 63.9 °F 30.12 in Calm     89 % 0.00 in
03:29 67.2 °F 63.8 °F 30.12 in Calm     89 % 0.00 in
03:34 67.2 °F 63.8 °F 30.12 in Calm     89 % 0.00 in
03:39 67.1 °F 64.1 °F 30.12 in Calm     90 % 0.00 in
03:44 67.0 °F 64.0 °F 30.12 in Calm     90 % 0.00 in
03:49 67.0 °F 64.0 °F 30.12 in Calm     90 % 0.00 in
03:54 66.9 °F 64.2 °F 30.12 in Calm     91 % 0.00 in
03:59 66.9 °F 64.2 °F 30.12 in Calm     91 % 0.00 in
04:10 66.7 °F 63.7 °F 30.12 in Calm     90 % 0.00 in
04:15 66.7 °F 63.7 °F 30.12 in Calm     90 % 0.00 in
04:20 66.6 °F 63.6 °F 30.12 in Calm     90 % 0.00 in
04:25 66.6 °F 63.6 °F 30.12 in Calm   1.2 mph 90 % 0.00 in
04:30 66.5 °F 63.8 °F 30.12 in Calm     91 % 0.00 in
04:35 66.6 °F 64.2 °F 30.12 in Calm     92 % 0.00 in
04:40 66.5 °F 64.1 °F 30.12 in Calm     92 % 0.00 in
04:45 66.5 °F 64.1 °F 30.12 in Calm   1.0 mph 92 % 0.00 in
04:50 66.5 °F 64.4 °F 30.13 in Calm     93 % 0.00 in
04:55 66.5 °F 64.4 °F 30.13 in Calm     93 % 0.00 in
05:01 66.4 °F 64.0 °F 30.13 in Calm     92 % 0.00 in
05:06 66.4 °F 64.0 °F 30.13 in Calm     92 % 0.00 in
05:11 66.4 °F 64.0 °F 30.13 in Calm     92 % 0.00 in
05:16 66.3 °F 63.9 °F 30.13 in Calm     92 % 0.00 in
05:21 66.3 °F 63.9 °F 30.13 in Calm     92 % 0.00 in
05:26 66.2 °F 63.8 °F 30.13 in SW 0.1 mph 1.2 mph 92 % 0.00 in
05:31 66.2 °F 63.8 °F 30.13 in Calm     92 % 0.00 in
05:36 66.2 °F 64.1 °F 30.14 in Calm     93 % 0.00 in
05:41 66.1 °F 64.0 °F 30.14 in Calm     93 % 0.00 in
05:46 66.2 °F 64.1 °F 30.14 in Calm     93 % 0.00 in
05:51 66.1 °F 64.0 °F 30.14 in Calm     93 % 0.00 in
05:56 66.1 °F 64.0 °F 30.14 in Calm     93 % 0.00 in
06:01 66.1 °F 64.0 °F 30.14 in Calm     93 % 0.00 in
06:07 66.2 °F 64.1 °F 30.14 in Calm     93 % 0.00 in
06:12 66.1 °F 64.0 °F 30.14 in Calm     93 % 0.00 in
06:17 66.1 °F 64.0 °F 30.14 in Calm     93 % 0.00 in
06:22 66.1 °F 64.0 °F 30.14 in Calm     93 % 0.00 in
06:27 66.1 °F 64.0 °F 30.14 in Calm     93 % 0.00 in
06:32 66.1 °F 64.3 °F 30.14 in Calm     94 % 0.00 in
06:37 66.1 °F 64.3 °F 30.15 in Calm     94 % 0.00 in
06:42 66.2 °F 64.4 °F 30.15 in Calm     94 % 0.00 in
06:47 66.4 °F 64.6 °F 30.15 in Calm     94 % 0.00 in
06:52 66.5 °F 65.0 °F 30.15 in Calm     95 % 0.00 in
06:58 66.6 °F 65.1 °F 30.15 in Calm     95 % 0.00 in
07:03 66.7 °F 65.2 °F 30.15 in Calm     95 % 0.00 in
07:08 66.9 °F 65.4 °F 30.15 in Calm     95 % 0.00 in
07:13 67.1 °F 65.9 °F 30.15 in Calm     96 % 0.00 in
07:18 67.4 °F 66.2 °F 30.15 in Calm     96 % 0.00 in
07:23 68.0 °F 67.1 °F 30.16 in Calm     97 % 0.00 in
07:28 68.4 °F 67.5 °F 30.16 in Calm     97 % 0.00 in
07:33 68.7 °F 67.5 °F 30.16 in Calm     96 % 0.00 in
07:38 69.0 °F 67.8 °F 30.16 in Calm     96 % 0.00 in
07:43 69.3 °F 68.1 °F 30.16 in Calm     96 % 0.00 in
07:49 69.6 °F 68.4 °F 30.17 in Calm     96 % 0.00 in
07:54 70.1 °F 68.9 °F 30.17 in Calm     96 % 0.00 in
07:59 70.4 °F 69.5 °F 30.17 in SW 0.4 mph 2.3 mph 97 % 0.00 in
08:04 70.8 °F 69.6 °F 30.17 in NW 1.3 mph 3.5 mph 96 % 0.00 in
08:09 71.1 °F 69.9 °F 30.17 in NW 1.6 mph 2.3 mph 96 % 0.00 in
08:14 71.4 °F 70.2 °F 30.17 in NW 0.1 mph 3.5 mph 96 % 0.00 in
08:24 71.8 °F 70.6 °F 30.17 in North 1.7 mph 3.5 mph 96 % 0.00 in
08:29 72.0 °F 70.5 °F 30.17 in North 1.7 mph 3.0 mph 95 % 0.00 in
08:34 72.2 °F 70.4 °F 30.17 in North 0.3 mph 2.3 mph 94 % 0.00 in
08:40 72.4 °F 70.6 °F 30.18 in North 0.7 mph 2.3 mph 94 % 0.00 in
08:45 72.6 °F 70.5 °F 30.18 in NNE 1.3 mph 3.5 mph 93 % 0.00 in
08:50 72.8 °F 70.7 °F 30.18 in NE 1.5 mph 3.0 mph 93 % 0.00 in
08:55 73.0 °F 70.5 °F 30.18 in NE 1.4 mph 3.5 mph 92 % 0.00 in
09:00 73.2 °F 70.4 °F 30.18 in NNE 1.0 mph 2.3 mph 91 % 0.00 in
09:05 73.5 °F 70.7 °F 30.18 in Calm   1.2 mph 91 % 0.00 in
09:10 73.8 °F 70.7 °F 30.18 in NNE 0.6 mph 1.2 mph 90 % 0.00 in
09:15 74.0 °F 70.6 °F 30.19 in NNE 1.3 mph 2.3 mph 89 % 0.00 in
09:20 74.2 °F 70.7 °F 30.18 in North 0.2 mph 2.3 mph 89 % 0.00 in
09:25 74.4 °F 70.9 °F 30.19 in ESE 1.3 mph 1.3 mph 89 % 0.00 in
09:31 74.6 °F 70.8 °F 30.19 in ENE 2.0 mph 4.0 mph 88 % 0.00 in
09:36 74.8 °F 71.0 °F 30.18 in NNE 1.0 mph 5.0 mph 88 % 0.00 in
09:41 75.0 °F 71.2 °F 30.18 in NNE 1.0 mph 4.0 mph 88 % 0.00 in
09:46 75.3 °F 71.1 °F 30.19 in NNE 2.0 mph 6.0 mph 87 % 0.00 in
09:51 75.6 °F 71.5 °F 30.19 in NNE 2.0 mph 5.0 mph 87 % 0.00 in
09:56 76.0 °F 71.5 °F 30.19 in NNE 1.0 mph 5.0 mph 86 % 0.00 in
10:01 76.7 °F 71.5 °F 30.19 in NE 1.7 mph 3.5 mph 84 % 0.00 in
10:06 77.5 °F 72.3 °F 30.19 in NNW 3.6 mph 5.0 mph 84 % 0.00 in
10:11 78.3 °F 72.3 °F 30.19 in NNE 2.9 mph 3.5 mph 82 % 0.00 in
10:16 79.0 °F 72.3 °F 30.19 in NE 1.7 mph 3.5 mph 80 % 0.00 in
10:21 79.8 °F 73.1 °F 30.19 in North 4.3 mph 5.8 mph 80 % 0.00 in
10:31 81.4 °F 73.1 °F 30.19 in North 1.7 mph 3.5 mph 76 % 0.00 in
10:36 82.0 °F 72.9 °F 30.20 in NNE 3.1 mph 4.6 mph 74 % 0.00 in
10:41 82.6 °F 73.5 °F 30.20 in NNE 1.8 mph 3.5 mph 74 % 0.00 in
10:46 83.3 °F 73.7 °F 30.20 in NNE 3.7 mph 5.0 mph 73 % 0.00 in
10:51 83.8 °F 73.4 °F 30.19 in NNE 2.6 mph 3.5 mph 71 % 0.00 in
10:57 84.6 °F 74.2 °F 30.20 in ENE 1.5 mph 4.6 mph 71 % 0.00 in
11:02 85.0 °F 72.8 °F 30.19 in NE 1.4 mph 3.5 mph 67 % 0.00 in
11:07 85.3 °F 72.6 °F 30.19 in NE 1.2 mph 3.5 mph 66 % 0.00 in
11:12 84.7 °F 72.5 °F 30.19 in NE 2.6 mph 4.0 mph 67 % 0.00 in
11:22 85.3 °F 73.5 °F 30.19 in NE 2.1 mph 3.5 mph 68 % 0.00 in
11:27 85.5 °F 73.3 °F 30.19 in NE 1.9 mph 3.5 mph 67 % 0.00 in
11:32 85.7 °F 73.5 °F 30.19 in ENE 3.4 mph 5.8 mph 67 % 0.00 in
11:37 85.5 °F 72.8 °F 30.19 in ENE 2.0 mph 4.6 mph 66 % 0.00 in
11:42 85.5 °F 72.8 °F 30.19 in ENE 1.9 mph 4.6 mph 66 % 0.00 in
11:48 85.3 °F 72.6 °F 30.19 in ENE 1.2 mph 3.5 mph 66 % 0.00 in
11:53 84.8 °F 72.2 °F 30.19 in ENE 0.2 mph 1.2 mph 66 % 0.00 in
12:03 84.9 °F 72.7 °F 30.19 in ENE 1.3 mph 3.5 mph 67 % 0.00 in
12:08 85.3 °F 73.1 °F 30.19 in NE 0.9 mph 5.0 mph 67 % 0.00 in
12:13 85.9 °F 71.4 °F 30.19 in ENE 3.1 mph 4.6 mph 62 % 0.00 in
12:18 85.9 °F 72.3 °F 30.19 in ENE 2.2 mph 3.5 mph 64 % 0.00 in
12:33 87.1 °F 72.5 °F 30.18 in North 2.9 mph 5.0 mph 62 % 0.00 in
12:39 87.6 °F 71.5 °F 30.18 in NE 2.2 mph 4.6 mph 59 % 0.00 in
12:44 87.9 °F 71.3 °F 30.18 in NNE 1.7 mph 5.0 mph 58 % 0.00 in
12:49 87.8 °F 71.2 °F 30.18 in NE 1.5 mph 3.0 mph 58 % 0.00 in
12:54 87.7 °F 70.6 °F 30.18 in ENE 2.9 mph 8.1 mph 57 % 0.00 in
12:59 87.5 °F 70.4 °F 30.18 in ENE 1.4 mph 3.5 mph 57 % 0.00 in
13:04 87.5 °F 72.4 °F 30.18 in NNE 1.7 mph 3.5 mph 61 % 0.00 in
13:09 87.3 °F 70.7 °F 30.18 in ENE 3.1 mph 5.8 mph 58 % 0.00 in
13:14 87.4 °F 69.8 °F 30.18 in ENE 2.2 mph 3.5 mph 56 % 0.00 in
13:19 87.4 °F 69.8 °F 30.18 in ENE 2.3 mph 6.9 mph 56 % 0.00 in
13:24 87.3 °F 68.6 °F 30.18 in ENE 2.7 mph 3.5 mph 54 % 0.00 in
13:30 87.4 °F 70.3 °F 30.18 in ENE 1.5 mph 3.0 mph 57 % 0.00 in
13:35 87.4 °F 69.3 °F 30.18 in NE 0.9 mph 2.3 mph 55 % 0.00 in
13:45 87.3 °F 69.7 °F 30.18 in ENE 2.2 mph 4.6 mph 56 % 0.00 in
13:50 87.3 °F 69.7 °F 30.17 in NE 0.8 mph 2.3 mph 56 % 0.00 in
13:55 87.5 °F 67.7 °F 30.17 in NE 2.6 mph 4.0 mph 52 % 0.00 in
14:00 87.5 °F 68.8 °F 30.17 in East 3.2 mph 3.5 mph 54 % 0.00 in
14:05 87.4 °F 67.1 °F 30.17 in NE 3.3 mph 6.9 mph 51 % 0.00 in
14:10 87.6 °F 68.4 °F 30.17 in NNE 2.4 mph 5.8 mph 53 % 0.00 in
14:15 88.0 °F 68.2 °F 30.17 in ENE 2.6 mph 3.5 mph 52 % 0.00 in
14:20 88.2 °F 70.0 °F 30.17 in NE 2.0 mph 6.0 mph 55 % 0.00 in
14:25 88.4 °F 70.7 °F 30.17 in NNE 1.0 mph 4.0 mph 56 % 0.00 in
14:30 88.4 °F 68.6 °F 30.17 in NE 5.0 mph 8.0 mph 52 % 0.00 in
14:35 88.4 °F 67.4 °F 30.17 in NE 1.0 mph 6.0 mph 50 % 0.00 in
14:40 88.5 °F 68.1 °F 30.17 in NE 1.0 mph 5.0 mph 51 % 0.00 in
14:45 88.6 °F 65.8 °F 30.17 in NE 2.0 mph 4.0 mph 47 % 0.00 in
14:50 88.7 °F 64.0 °F 30.17 in NE 2.0 mph 4.0 mph 44 % 0.00 in
14:56 88.7 °F 63.4 °F 30.17 in Calm   1.0 mph 43 % 0.00 in
15:01 89.0 °F 66.2 °F 30.17 in NE 1.6 mph 3.5 mph 47 % 0.00 in
15:06 89.1 °F 63.7 °F 30.17 in WNW 0.2 mph 3.5 mph 43 % 0.00 in
15:11 89.1 °F 65.6 °F 30.17 in NE 0.5 mph 2.3 mph 46 % 0.00 in
15:16 88.7 °F 63.3 °F 30.17 in WSW 3.8 mph 6.0 mph 43 % 0.00 in
15:21 88.4 °F 62.4 °F 30.16 in SE 1.6 mph 5.0 mph 42 % 0.00 in
15:26 88.3 °F 58.7 °F 30.16 in SW 2.4 mph 4.6 mph 37 % 0.00 in
15:31 88.2 °F 58.6 °F 30.16 in SSE 2.8 mph 6.9 mph 37 % 0.00 in
15:36 88.3 °F 60.9 °F 30.16 in SW 2.9 mph 5.8 mph 40 % 0.00 in
15:41 88.7 °F 62.7 °F 30.15 in Calm   2.3 mph 42 % 0.00 in
15:47 88.6 °F 60.5 °F 30.16 in SSW 2.5 mph 6.9 mph 39 % 0.00 in
15:52 88.6 °F 59.0 °F 30.16 in SSE 0.7 mph 2.3 mph 37 % 0.00 in
15:57 88.6 °F 60.5 °F 30.16 in WSW 4.6 mph 7.0 mph 39 % 0.00 in
16:02 88.9 °F 62.2 °F 30.16 in SW 1.1 mph 3.5 mph 41 % 0.00 in
16:07 89.1 °F 60.9 °F 30.16 in NW 4.1 mph 9.2 mph 39 % 0.00 in
16:12 89.4 °F 61.2 °F 30.16 in SW 2.0 mph 3.5 mph 39 % 0.00 in
16:17 89.2 °F 59.5 °F 30.15 in SW 2.7 mph 5.0 mph 37 % 0.00 in
16:22 89.1 °F 60.2 °F 30.15 in South 1.7 mph 4.6 mph 38 % 0.00 in
16:27 89.1 °F 59.4 °F 30.15 in South 1.1 mph 6.9 mph 37 % 0.00 in
16:32 88.6 °F 59.7 °F 30.16 in SSE 2.1 mph 5.8 mph 38 % 0.00 in
16:38 88.6 °F 61.9 °F 30.16 in SW 1.0 mph 3.5 mph 41 % 0.00 in
16:43 88.6 °F 59.7 °F 30.15 in SW 2.1 mph 3.5 mph 38 % 0.00 in
16:48 88.8 °F 59.2 °F 30.15 in SE 2.7 mph 4.6 mph 37 % 0.00 in
16:53 88.6 °F 60.5 °F 30.15 in SSW 1.6 mph 3.5 mph 39 % 0.00 in
16:58 88.4 °F 60.3 °F 30.15 in South 0.5 mph 2.3 mph 39 % 0.00 in
17:03 88.1 °F 59.3 °F 30.15 in SSE 2.3 mph 5.0 mph 38 % 0.00 in
17:08 87.4 °F 59.4 °F 30.15 in SSE 1.8 mph 4.0 mph 39 % 0.00 in
17:13 86.8 °F 59.6 °F 30.16 in SE 2.0 mph 3.5 mph 40 % 0.00 in
17:18 86.3 °F 59.1 °F 30.16 in SSW 1.5 mph 4.0 mph 40 % 0.00 in
17:23 85.9 °F 59.5 °F 30.15 in SE 1.0 mph 5.8 mph 41 % 0.00 in
17:34 85.6 °F 60.5 °F 30.16 in South 2.3 mph 8.1 mph 43 % 0.00 in
17:39 85.6 °F 61.2 °F 30.16 in SW 0.1 mph 2.3 mph 44 % 0.00 in
17:44 85.6 °F 60.5 °F 30.15 in SSW 0.5 mph 2.3 mph 43 % 0.00 in
17:49 85.6 °F 60.5 °F 30.15 in SE 1.5 mph 3.5 mph 43 % 0.00 in
17:54 85.4 °F 61.6 °F 30.16 in SSE 2.1 mph 3.5 mph 45 % 0.00 in
17:59 85.0 °F 61.3 °F 30.16 in SE 2.1 mph 4.6 mph 45 % 0.00 in
18:04 84.6 °F 61.5 °F 30.16 in SSE 0.9 mph 2.3 mph 46 % 0.00 in
18:09 84.4 °F 62.6 °F 30.16 in SSW 1.1 mph 3.5 mph 48 % 0.00 in
18:14 84.2 °F 61.8 °F 30.16 in SE 1.5 mph 2.3 mph 47 % 0.00 in
18:19 83.9 °F 62.1 °F 30.16 in SW 1.4 mph 4.0 mph 48 % 0.00 in
18:24 83.7 °F 61.3 °F 30.15 in South 0.4 mph 3.5 mph 47 % 0.00 in
18:30 83.5 °F 62.3 °F 30.15 in SW 0.4 mph 2.3 mph 49 % 0.00 in
18:35 83.1 °F 62.5 °F 30.15 in SE 0.1 mph 2.3 mph 50 % 0.00 in
18:40 82.9 °F 62.9 °F 30.16 in SSW 1.6 mph 3.5 mph 51 % 0.00 in
18:45 82.6 °F 62.1 °F 30.16 in South 1.2 mph 3.5 mph 50 % 0.00 in
18:50 82.4 °F 61.9 °F 30.15 in SW 1.4 mph 3.5 mph 50 % 0.00 in
18:55 82.2 °F 62.3 °F 30.16 in WSW 1.0 mph 2.3 mph 51 % 0.00 in
19:00 82.1 °F 63.3 °F 30.15 in SSW 0.1 mph 1.2 mph 53 % 0.00 in
19:05 81.9 °F 63.6 °F 30.16 in SSE 0.3 mph 3.5 mph 54 % 0.00 in
19:10 81.5 °F 64.3 °F 30.15 in SSE 0.3 mph 1.2 mph 56 % 0.00 in
19:15 81.3 °F 64.6 °F 30.16 in SSE 0.2 mph 1.2 mph 57 % 0.00 in
19:21 81.1 °F 64.4 °F 30.16 in Calm   3.0 mph 57 % 0.00 in
19:26 80.9 °F 64.7 °F 30.16 in Calm     58 % 0.00 in
19:31 80.7 °F 64.5 °F 30.16 in Calm   1.0 mph 58 % 0.00 in
19:36 80.4 °F 64.3 °F 30.16 in SSW 1.0 mph 5.0 mph 58 % 0.00 in
19:41 80.0 °F 64.4 °F 30.16 in Calm   2.0 mph 59 % 0.00 in
19:46 79.8 °F 64.7 °F 30.16 in Calm   2.0 mph 60 % 0.00 in
19:51 79.6 °F 65.0 °F 30.16 in Calm   1.0 mph 61 % 0.00 in
19:56 79.4 °F 65.2 °F 30.16 in Calm   3.0 mph 62 % 0.00 in
20:01 79.1 °F 65.0 °F 30.16 in Calm   1.2 mph 62 % 0.00 in
20:06 78.9 °F 65.2 °F 30.16 in Calm     63 % 0.00 in
20:11 78.6 °F 65.4 °F 30.16 in SE 0.2 mph 1.2 mph 64 % 0.00 in
20:16 78.3 °F 65.6 °F 30.16 in SE 0.3 mph 2.3 mph 65 % 0.00 in
20:21 78.0 °F 65.7 °F 30.16 in SE 0.3 mph 3.0 mph 66 % 0.00 in
20:26 77.7 °F 65.9 °F 30.16 in Calm   1.2 mph 67 % 0.00 in
20:31 77.5 °F 66.1 °F 30.16 in Calm   1.2 mph 68 % 0.00 in
20:36 77.2 °F 66.2 °F 30.16 in SSE 0.6 mph 3.5 mph 69 % 0.00 in
20:41 77.0 °F 66.5 °F 30.16 in SSE 0.5 mph 3.5 mph 70 % 0.00 in
20:47 76.8 °F 66.7 °F 30.16 in SSE 0.8 mph 3.5 mph 71 % 0.00 in
20:52 76.6 °F 66.9 °F 30.16 in SE 1.5 mph 3.5 mph 72 % 0.00 in
20:57 76.5 °F 67.2 °F 30.16 in SE 1.1 mph 3.5 mph 73 % 0.00 in
21:02 76.3 °F 67.4 °F 30.16 in SE 0.6 mph 3.5 mph 74 % 0.00 in
21:07 76.2 °F 67.3 °F 30.16 in SE 0.4 mph 2.0 mph 74 % 0.00 in
21:12 76.1 °F 67.6 °F 30.16 in SSE 0.3 mph 2.3 mph 75 % 0.00 in
21:17 76.0 °F 67.5 °F 30.16 in SE 0.8 mph 3.5 mph 75 % 0.00 in
21:22 75.9 °F 67.8 °F 30.16 in SE 1.7 mph 4.6 mph 76 % 0.00 in
21:27 75.8 °F 68.1 °F 30.16 in SE 0.3 mph 3.5 mph 77 % 0.00 in
21:32 75.7 °F 68.4 °F 30.17 in SE 0.2 mph 1.2 mph 78 % 0.00 in
21:37 75.6 °F 68.6 °F 30.17 in SE 0.2 mph 4.6 mph 79 % 0.00 in
21:43 75.6 °F 68.6 °F 30.17 in SE 0.2 mph 2.3 mph 79 % 0.00 in
21:48 75.6 °F 68.6 °F 30.17 in Calm   1.2 mph 79 % 0.00 in
21:53 75.5 °F 68.9 °F 30.17 in SE 0.5 mph 1.2 mph 80 % 0.00 in
21:58 75.5 °F 68.9 °F 30.17 in Calm   1.2 mph 80 % 0.00 in
22:03 75.4 °F 69.2 °F 30.17 in SE 0.5 mph 2.3 mph 81 % 0.00 in
22:08 75.3 °F 69.1 °F 30.17 in SE 0.1 mph 1.2 mph 81 % 0.00 in
22:13 75.3 °F 69.1 °F 30.17 in SE 0.3 mph 1.2 mph 81 % 0.00 in
22:18 75.2 °F 69.0 °F 30.17 in Calm   1.2 mph 81 % 0.00 in
22:23 75.2 °F 69.3 °F 30.17 in Calm     82 % 0.00 in
22:28 75.1 °F 69.2 °F 30.17 in SE 0.3 mph 1.2 mph 82 % 0.00 in
22:34 75.0 °F 69.1 °F 30.17 in SSW 0.2 mph 2.3 mph 82 % 0.00 in
22:39 75.0 °F 69.1 °F 30.17 in SSW 0.2 mph 1.2 mph 82 % 0.00 in
22:44 74.9 °F 69.4 °F 30.18 in SSW 0.6 mph 2.3 mph 83 % 0.00 in
22:49 74.9 °F 69.4 °F 30.17 in SE 0.3 mph 2.3 mph 83 % 0.00 in
22:54 74.9 °F 69.4 °F 30.17 in South 0.2 mph 1.2 mph 83 % 0.00 in
22:59 74.9 °F 69.7 °F 30.18 in SE 0.2 mph 2.3 mph 84 % 0.00 in
23:04 74.9 °F 69.7 °F 30.18 in SE 2.6 mph 6.9 mph 84 % 0.00 in
23:09 75.0 °F 69.8 °F 30.18 in SSE 1.3 mph 3.5 mph 84 % 0.00 in
23:14 75.0 °F 69.8 °F 30.17 in SE 0.5 mph 2.3 mph 84 % 0.00 in
23:19 75.0 °F 69.8 °F 30.18 in SSE 0.6 mph 2.3 mph 84 % 0.00 in
23:25 74.9 °F 69.7 °F 30.18 in SSE 0.2 mph 1.0 mph 84 % 0.00 in
23:30 74.9 °F 70.1 °F 30.18 in SE 0.7 mph 3.5 mph 85 % 0.00 in
23:35 74.9 °F 70.1 °F 30.18 in SSE 2.8 mph 4.6 mph 85 % 0.00 in
23:40 74.8 °F 70.0 °F 30.18 in Calm   2.3 mph 85 % 0.00 in
23:45 74.8 °F 70.0 °F 30.18 in SSE 1.3 mph 3.5 mph 85 % 0.00 in
23:50 74.8 °F 70.0 °F 30.18 in Calm   1.2 mph 85 % 0.00 in
23:55 74.7 °F 69.9 °F 30.18 in SE 0.1 mph 1.2 mph 85 % 0.00 in
Crab Meadow Weather
Compliments of Weather Underground - 2.75 mb

Script developed by  Jim McMurry - jmcmurry@mwt.net Adapted for the template by  Wim van der Kuil - Leuven-Template.eu

Hurricanes: A large hurricane stirs up more than a million cubic miles of the atmosphere every second. Hurricane winds can kick up 50 foot or higher waves in the open ocean.